Regional Weather Roundup
Issued by NWS Kansas City/Pleasant Hill, MO

Home | Current Version | Previous Version | Graphics & Text | Print | Product List | Glossary Off
Versions: 1 2 3 4 5 6 7 8 9 10 11 12 13 14 15 16 17 18 19 20 21 22 23 24 25 26 27 28 29 30 31 32 33 34 35 36 37 38 39 40 41 42 43 44 45 46 47 48 49 50

000
ASUS43 KEAX 171904
RWREAX

WEATHER ROUNDUP FOR EASTERN KANSAS AND NORTHWEST MISSOURI
NATIONAL WEATHER SERVICE KANSAS CITY/PLEASANT HILL MO
200 PM CDT THU APR 17 2014

KSZ040-057-103>105-MOZ028-029-037-043-172000-
...KANSAS CITY METROPOLITAN AREA...

CITY           SKY/WX    TMP DP  RH WIND       PRES   REMARKS
K.C. INTL      CLOUDY    45  31  58 N6        30.30S
K.C. DOWNTOWN  CLOUDY    44  31  60 VRB5      30.30S
LEES SUMMIT    CLOUDY    43  31  62 N5        30.30S
OLATHE - IXD   CLOUDY    43  32  65 N7        30.30F
OLATHE - OJC   CLOUDY    44  31  60 N8        30.28F
LAWRENCE       CLOUDY    46  32  58 CALM      30.30F

$$

MOZ001>008-011>017-020>025-030>033-038>040-044>046-053-054-172000-
...NORTHERN AND CENTRAL MISSOURI...

CITY           SKY/WX    TMP DP  RH WIND       PRES   REMARKS
ST. JOSEPH     PTSUNNY   47  30  51 VRB3      30.30F
MOSBY          FAIR      43  32  65 NW5       30.30S
WHITEMAN AFB   CLOUDY    44  33  64 VRB5      30.29S
CLINTON        PTSUNNY   48  37  66 N7        30.30R
SEDALIA        CLOUDY    47  36  65 NW7       30.29F
WARSAW         NOT AVBL
MARSHALL         N/A     46  37  71 NW8       30.31F
CHILLICOTHE      N/A     48  32  53 N8        30.29F
KIRKSVILLE     CLOUDY    49  33  54 NE9       30.27F

$$

MOZ041-047>049-056>058-063>065-088>090-097-172000-
...EASTERN AND SOUTHERN MISSOURI...

CITY           SKY/WX    TMP DP  RH WIND       PRES   REMARKS
ST. LOUIS INTL CLOUDY    65  37  35 VRB6      30.24F
SPIRIT OF STL  CLOUDY    63  36  36 NW3       30.24F
COLUMBIA       PTSUNNY   57  42  57 VRB7      30.25F
JEFFERSON CITY PTSUNNY   56  37  49 W6        30.25F
MEXICO         CLOUDY    50  39  66 NW3       30.26F
HANNIBAL       CLOUDY    54  34  47 N3        30.27F
ROLLA          MOSUNNY   60  37  42 N5        30.21F
LEBANON        MOSUNNY   63  34  34 CALM      30.23S
OSAGE BEACH    MOSUNNY   59  34  38 N6        30.25F
SPRINGFIELD    PTSUNNY   63  37  38 CALM      30.22S
BRANSON        PTSUNNY   63  34  34 N10       30.21F
NEVADA         CLOUDY    54  39  58 N6        30.29S
JOPLIN         CLOUDY    58  38  47 N7        30.24F
WEST PLAINS    PTSUNNY   64  33  31 E8        30.22F

$$

IAZ060-094-KSZ022-034>040-054-083-096-NEZ052-066-093-172000-
...KANSAS...SOUTHEAST NEBRASKA AND IOWA...

CITY           SKY/WX    TMP DP  RH WIND       PRES   REMARKS
TOPEKA         CLOUDY    48  32  53 MISG      30.31F
MANHATTAN      PTSUNNY   48  30  49 E3        30.30F
EMPORIA        LGT RAIN  40  33  76 N6        30.30F
CHANUTE        CLOUDY    49  35  58 N10       30.29F
WICHITA        CLOUDY    41  32  70 N10       30.30F WCI  35
OMAHA          MOSUNNY   49  26  41 NW9       30.30F
LINCOLN        SUNNY     52  26  36 N7        30.30F
FALLS CITY     SUNNY     49  29  46 VRB5      30.29F
LAMONI         MOSUNNY   48  31  51 N9        30.27S
DES MOINES     PTSUNNY   47  29  49 NW12      30.28F

$$




USA.gov is the U.S. government's official web portal to all federal, state and local government web resources and services.